Location: Croisilles
(50.1998°N, 2.8793°E)
Time: 12:07:31
(UTC+00:00)

Cosmos 1486 Rocket - Pass Details

Date: 21 January 2021
Orbit: 759 x 783 km, 74.1° (Epoch: 26 February)

Event Time Altitude Azimuth Distance (km) Brightness Sun altitude
Rises 16:51:42 0° 210° (SSW) 3,225 8.3 -4.7°
Reaches altitude 10° 16:54:06 10° 212° (SSW) 2,299 7.5 -5.1°
Maximum altitude 16:59:17 69° 296° (WNW) 820 4.4 -5.8°
Drops below altitude 10° 17:04:30 10° 20° (NNE) 2,304 6.1 -6.6°
Sets 17:06:54 0° 23° (NNE) 3,232 6.8 -7.0°
